[[{"header":{"parameterUnit":"m.s-1","parameterCategory":1,"la1":30.2992,"la2":30.254,"lo1":-89.0895,"lo2":-89.0443,"dy":0.0025,"dx":0.0025,"nx":19,"ny":19,"refTime":"2026-05-03T21:00:00:Z","depth":0,"parameterNumber":2,"parameterNumberName":"U-component_of_WINDS"},"data":[0,0,0,-0.3475,-0.3476,-0.3512,-0.3512,-0.3566,-0.3567,0,0,0,0,0,0,0,0,0,0,0,-0.3468,-0.3469,-0.3475,-0.3476,-0.3512,-0.3512,-0.3566,-0.3567,0,0,0,0,0,0,0,0,0,0,0,-0.3468,-0.3469,-0.3469,-0.3476,-0.3512,-0.3512,-0.3566,-0.3536,0,0,0,0,0,0,0,0,0,0,-0.3499,-0.3498,-0.3469,-0.3469,-0.3476,-0.3512,-0.3512,-0.3534,-0.3538,-0.3553,0,-0.3567,0,-0.3568,-0.3571,-0.3571,0,0,0,-0.3473,-0.3495,-0.35,-0.3469,-0.3476,-0.3512,-0.3495,-0.3536,-0.354,-0.3557,-0.3568,-0.357,-0.3569,-0.3571,-0.3571,-0.3668,-0.3668,0,0,-0.3471,-0.3477,-0.3498,-0.3503,-0.3498,-0.3494,-0.3496,-0.3538,-0.355,-0.3568,-0.3571,-0.3569,-0.3572,-0.3572,-0.3667,-0.3668,0,0,0,-0.3467,-0.3476,-0.3481,-0.3501,-0.3507,-0.3495,-0.3497,-0.3548,-0.3549,-0.3571,-0.357,-0.3572,-0.3573,-0.3666,-0.3667,-0.3704,0,0,0,-0.3466,-0.3474,-0.348,-0.3484,-0.3507,-0.3528,-0.3507,-0.3546,-0.3551,-0.357,-0.3572,-0.3573,-0.3666,-0.3667,-0.3702,-0.3721,0,0,0,-0.3464,-0.3474,-0.348,-0.3485,-0.3501,-0.3527,-0.3531,-0.3547,-0.355,-0.3571,-0.3573,-0.3665,-0.3667,-0.37,-0.3717,-0.3749,0,0,0,-0.3465,-0.3513,-0.3481,-0.3533,-0.35,-0.3549,-0.353,-0.3566,-0.3588,-0.3572,-0.3666,-0.3667,-0.3699,-0.3715,-0.3747,-0.3778,-0.3791,0,0,-0.3529,-0.352,-0.355,-0.3523,-0.358,-0.3543,-0.3605,-0.3619,-0.3614,-0.365,-0.3652,-0.3702,-0.3717,-0.3749,-0.386,-0.3871,0,0,0,-0.3573,-0.3595,-0.3608,-0.3629,-0.364,-0.3652,-0.3655,-0.366,-0.369,-0.3634,-0.3721,-0.373,-0.3748,-0.3763,-0.3772,-0.3788,-0.3674,-0.3674,-0.3674,-0.3674,-0.3665,-0.3714,-0.371,-0.373,-0.3733,-0.3749,-0.3756,-0.3741,-0.3762,-0.3774,-0.3842,-0.386,-0.3866,-0.3883,-0.3788,-0.3788,-0.3788,-0.3788,-0.3767,-0.3797,-0.3776,-0.3816,-0.3807,-0.3841,-0.3844,-0.3833,-0.3863,-0.3833,-0.3849,-0.3818,-0.3878,-0.3892,-0.3791,-0.379,-0.379,-0.379,-0.379,-0.3834,-0.3847,-0.3851,-0.388,-0.3903,-0.3897,-0.3927,-0.3916,-0.3907,-0.3922,-0.3934,-0.3933,-0.3933,-0.3928,-0.3928,-0.3929,-0.3929,-0.3929,-0.3929,-0.3902,-0.3906,-0.3932,-0.3947,-0.3959,-0.3973,-0.3975,-0.3986,-0.3997,-0.3987,-0.3987,-0.3971,-0.3885,-0.3865,-0.3933,-0.3932,-0.3932,-0.3931,-0.3931,-0.4003,-0.3978,-0.4019,-0.4031,-0.4048,-0.4072,-0.4057,-0.4081,-0.4089,-0.4104,-0.4084,-0.4022,-0.4013,-0.4006,-0.3989,-0.4085,-0.4085,-0.4085,-0.4085,-0.4061,-0.4054,-0.4094,-0.4114,-0.4131,-0.4122,-0.417,-0.4171,-0.4169,-0.4173,-0.4157,-0.4133,-0.4126,-0.4121,-0.4112,-0.4096,-0.4217,-0.4217,-0.4218,-0.4123,-0.4118,-0.416,-0.4157,-0.4169,-0.4179,-0.4223,-0.4247,-0.4239,-0.4223,-0.4176,-0.4171,-0.4132,-0.4119,-0.4105,-0.409,-0.4061,0,0]},{"header":{"parameterUnit":"m.s-1","parameterCategory":1,"la1":30.2992,"la2":30.254,"lo1":-89.0895,"lo2":-89.0443,"dy":0.0025,"dx":0.0025,"nx":19,"ny":19,"refTime":"2026-05-03T21:00:00:Z","depth":0,"parameterNumber":3,"parameterNumberName":"V-component_of_WINDS"},"data":[0,0,0,-2.9071,-2.9073,-2.9156,-2.9156,-2.9269,-2.927,0,0,0,0,0,0,0,0,0,0,0,-2.9051,-2.9052,-2.9071,-2.9073,-2.9156,-2.9156,-2.9268,-2.927,0,0,0,0,0,0,0,0,0,0,0,-2.9051,-2.9052,-2.9053,-2.9073,-2.9156,-2.9156,-2.9268,-2.9203,0,0,0,0,0,0,0,0,0,0,-2.9121,-2.9108,-2.9052,-2.9053,-2.9074,-2.9156,-2.9156,-2.92,-2.9207,-2.9234,0,-2.9261,0,-2.9267,-2.9278,-2.9278,0,0,0,-2.9068,-2.9102,-2.912,-2.9053,-2.9074,-2.9155,-2.9117,-2.9204,-2.9212,-2.9244,-2.9263,-2.9267,-2.9269,-2.9279,-2.9279,-2.9457,-2.9458,0,0,-2.9064,-2.9068,-2.9115,-2.9126,-2.9115,-2.9114,-2.912,-2.9209,-2.9228,-2.9263,-2.9269,-2.9271,-2.9279,-2.928,-2.9456,-2.9457,0,0,0,-2.9054,-2.9065,-2.9081,-2.9122,-2.9136,-2.9117,-2.9123,-2.9224,-2.9229,-2.927,-2.9273,-2.928,-2.9282,-2.9454,-2.9456,-2.9514,0,0,0,-2.9051,-2.9059,-2.9079,-2.9083,-2.9135,-2.9182,-2.9137,-2.9223,-2.9233,-2.9272,-2.928,-2.9283,-2.9453,-2.9455,-2.951,-2.9541,0,0,0,-2.9044,-2.9058,-2.9073,-2.9083,-2.9119,-2.918,-2.919,-2.9225,-2.9235,-2.9278,-2.9283,-2.9452,-2.9455,-2.9506,-2.9535,-2.9591,0,0,0,-2.9038,-2.912,-2.9073,-2.9167,-2.9119,-2.9215,-2.9189,-2.926,-2.9305,-2.9281,-2.9453,-2.9456,-2.9505,-2.9531,-2.9587,-2.964,-2.9663,0,0,-2.9144,-2.9133,-2.9188,-2.9149,-2.9256,-2.9202,-2.9317,-2.9352,-2.935,-2.9421,-2.9425,-2.9511,-2.9534,-2.959,-2.9783,-2.98,0,0,0,-2.9223,-2.9263,-2.929,-2.9334,-2.9364,-2.9393,-2.941,-2.9423,-2.9484,-2.9388,-2.9546,-2.9559,-2.9592,-2.9617,-2.9632,-2.9661,-2.9467,-2.9467,-2.9467,-2.9381,-2.9377,-2.9468,-2.9475,-2.9518,-2.9536,-2.9571,-2.9591,-2.9572,-2.961,-2.9631,-2.9749,-2.9779,-2.979,-2.982,-2.9657,-2.9658,-2.9658,-2.9658,-2.9539,-2.9595,-2.9571,-2.9652,-2.9647,-2.9713,-2.9734,-2.9719,-2.978,-2.9731,-2.976,-2.9708,-2.981,-2.9835,-2.9662,-2.9661,-2.9661,-2.966,-2.966,-2.9643,-2.967,-2.9686,-2.9751,-2.9802,-2.9805,-2.9866,-2.9858,-2.9851,-2.9879,-2.9902,-2.9901,-2.9901,-2.989,-2.9891,-2.9891,-2.9892,-2.9892,-2.9892,-2.9745,-2.9762,-2.9816,-2.9857,-2.9886,-2.9923,-2.9943,-2.9971,-2.9999,-2.9988,-2.9989,-2.9968,-2.982,-2.9784,-2.9899,-2.9897,-2.9897,-2.9896,-2.9896,-2.991,-2.9872,-2.9955,-2.9984,-3.0033,-3.0085,-3.0075,-3.0133,-3.0154,-3.0185,-3.0158,-3.0049,-3.0036,-3.0024,-2.9995,-3.0157,-3.0157,-3.0157,-3.0157,-2.9999,-2.9993,-3.0078,-3.0125,-3.0171,-3.0171,-3.0265,-3.0283,-3.0294,-3.0307,-3.0282,-3.0242,-3.023,-3.0224,-3.0208,-3.018,-3.0386,-3.0386,-3.0387,-3.0101,-3.0099,-3.0182,-3.0195,-3.0233,-3.0267,-3.0356,-3.0411,-3.0415,-3.0396,-3.0318,-3.0308,-3.0243,-3.0221,-3.0201,-3.0176,-3.0125,0,0]}]]